Rionegro, Colombia

3:32 AM COT on February 26, 2017 (GMT -0500)
Jose Maria Cordova

Weather History for SKRG - December, 2012

Change the Weather History Date:

Tuesday, December 4, 2012

  Actual Average Record
Temperature  
Mean Temperature 63 °F -  
Max Temperature 69 °F 68 °F 75 °F (2002)
Min Temperature 57 °F 53 °F 50 °F (1996)
Degree Days  
Heating Degree Days 2    
Growing Degree Days 13 (Base 50)    
Moisture  
Dew Point 56 °F    
Average Humidity 82    
Maximum Humidity 100    
Minimum Humidity 49    
Precipitation  
Precipitation 0.00 in - - ()
Sea Level Pressure  
Sea Level Pressure 30.27 in    
Wind  
Wind Speed 3 mph ()    
Max Wind Speed 11 mph    
Max Gust Speed -    
Visibility 6.1 miles    
Events Fog    
Averages and records for this station are not official NWS values.
T = Trace of Precipitation, MM = Missing Value Source: Averaged Metar Reports

Daily Weather History Graph

Daily Weather History Graph

Search for Another Location

Airport or City:

Trip Planner

Search our weather history database for the weather conditions in past years. The results will help you decide how hot, cold, wet, or windy it might be!

Date:

Astronomy

Dec. 04, 2012 Rise Set
Actual Time 5:58 AM COT 5:45 PM COT
Civil Twilight 5:36 AM COT 6:08 PM COT
Nautical Twilight 5:10 AM COT 6:34 PM COT
Astronomical Twilight 4:44 AM COT 7:00 PM COT
Moon 10:45 PM COT (12/4) 10:30 AM COT (12/4)
Length of Visible Light 12h 31m
Length of Day
11h 47m
Waning Gibbous, 69% of the Moon is Illuminated
Dec 4
Waning Gibbous
Dec 6
Last Quarter
Dec 13
New
Dec 20
First Quarter
Dec 28
Full

Hourly Weather History & Observations

Time (COT) Temp. Dew Point Humidity Pressure Visibility Wind Dir Wind Speed Gust Speed Precip Events Conditions
12:00 AM 59.0 °F 57.2 °F 94% 30.28 in 4.3 mi Calm Calm - N/A Fog Fog
1:00 AM 58 °F 57 °F 95%  in 4 mi Calm Calm - - Fog Light Fog
1:00 AM 59.0 °F 57.2 °F 94% 30.28 in 4.3 mi Calm Calm - N/A Fog Fog
2:00 AM 59.0 °F 57.2 °F 94% 30.27 in 4.3 mi Calm Calm - N/A Fog Fog
3:00 AM 59.0 °F 57.2 °F 94% 30.26 in 4.3 mi Calm Calm - N/A Fog Fog
4:00 AM 58 °F 57 °F 94%  in 4 mi Calm Calm - - Fog Light Fog
4:00 AM 57.2 °F 57.2 °F 100% 30.24 in 3.7 mi Calm Calm - N/A Fog Fog
5:00 AM 57.2 °F 57.2 °F 100% 30.26 in 3.7 mi Calm Calm - N/A Fog Fog
5:30 AM 57.2 °F 57.2 °F 100% 30.26 in 3.7 mi Calm Calm - N/A Fog Fog
6:00 AM 57.2 °F 57.2 °F 100% 30.27 in 3.7 mi Calm Calm - N/A Fog Fog
7:00 AM 58 °F 56 °F 91%  in 5 mi North 4.5 mph - -   Haze
7:00 AM 59.0 °F 55.4 °F 88% 30.29 in 5.0 mi North 4.6 mph - N/A   Mostly Cloudy
8:00 AM 59.0 °F 55.4 °F 88% 30.32 in 6.2 mi ENE 4.6 mph - N/A   Scattered Clouds
9:00 AM 60.8 °F 53.6 °F 77% 30.33 in 6.2 mi Variable 2.3 mph - N/A   Scattered Clouds
10:00 AM 63 °F 54 °F 66%  in 12 mi SE 6.7 mph - -   Haze
10:00 AM 62.6 °F 53.6 °F 72% 30.33 in 6.2 mi SE 5.8 mph - N/A   Scattered Clouds
11:00 AM 66.2 °F 55.4 °F 68% 30.31 in 6.2 mi ENE 6.9 mph - N/A   Scattered Clouds
12:00 PM 68.0 °F 53.6 °F 60% 30.28 in 6.2 mi East 9.2 mph - N/A   Scattered Clouds
1:00 PM 69 °F 54 °F 49%  in 12 mi East 8.9 mph - -   Haze
1:00 PM 69.8 °F 53.6 °F 56% 30.25 in 6.2 mi East 9.2 mph - N/A   Scattered Clouds
2:00 PM 68.0 °F 53.6 °F 60% 30.23 in 6.2 mi NE 8.1 mph - N/A   Scattered Clouds
3:00 PM 68.0 °F 53.6 °F 60% 30.20 in 6.2 mi ENE 9.2 mph - N/A   Scattered Clouds
4:00 PM 67 °F 54 °F 54%  in 12 mi East 11.2 mph - -   Haze
4:00 PM 68.0 °F 53.6 °F 60% 30.19 in 6.2 mi East 10.4 mph - N/A   Scattered Clouds
5:00 PM 64.4 °F 57.2 °F 77% 30.21 in 6.2 mi ENE 9.2 mph - N/A   Scattered Clouds
6:00 PM 62.6 °F 57.2 °F 82% 30.23 in 6.2 mi ENE 6.9 mph - N/A   Scattered Clouds
7:00 PM 60 °F 58 °F 90%  in 9 mi East 4.5 mph - -   Haze
7:00 PM 60.8 °F 57.2 °F 88% 30.25 in 6.2 mi East 4.6 mph - N/A   Mostly Cloudy
8:00 PM 60.8 °F 57.2 °F 88% 30.27 in 6.2 mi Calm Calm - N/A   Mostly Cloudy
9:00 PM 60.8 °F 57.2 °F 88% 30.29 in 6.2 mi ENE 4.6 mph - N/A   Mostly Cloudy
10:00 PM 60 °F 58 °F 90%  in 6 mi Calm Calm - -   Haze
10:00 PM 60.8 °F 57.2 °F 88% 30.31 in 6.2 mi Calm Calm - N/A   Mostly Cloudy
11:00 PM 59.0 °F 57.2 °F 94% 30.30 in 6.2 mi Calm Calm - N/A   Mostly Cloudy